Погода в Черки-Кильдуразах

Россия / Республика Татарстан     55°06′20″N   48°16′00″E
темп.,
°C
ветер,
м/с
пор.,
м/с
влажн.,
%
обл.,
%
осадки,
мм/ч
давл.,
гПа
погр.,
м
6 марта, сб
сб600:00−12зюз34920 0.0 100931
03:00−11зюз489431 0.0 1011131
06:00−12з489677 0.1 1012145
09:00−13зсз489267 0.1 1014255
12:00−10зсз23880 0.0 1015215
15:00−9ююз22900 0.0 101462
18:00−13юз34890 0.0 101431
21:00−15юз22900 0.0 101320
7 марта, вс
вс700:00−16з22960 0.0 101220
03:00−16з129715 0.0 101220
06:00−16юз229892 0.1 101120
09:00−14юз359585 0.1 1011140
12:00−11ююз479145 0.0 1009295
15:00−8ю5108762 0.0 1006598
18:00−7ю81493100 0.1 1003844
21:00−7ю81594100 1.0 999857
8 марта, пн
пн800:00−5ююз81493100 0.8 995892
03:00−7з71379100 1.4 995522
06:00−11юз498593 0.0 996173
09:00−10юз5118592 0.0 998292
12:00−7зюз7118481 0.0 998781
15:00−6юз5108790 0.0 998780
18:00−9зюз488929 0.0 998134
21:00−10з5119030 0.0 1001245
9 марта, вт
вт900:00−10зсз6129256 0.0 1003376
03:00−13з499577 0.1 1006245
06:00−17зсз469797 0.0 1009106
09:00−16зсз489474 0.1 1011264
12:00−14зсз468939 0.0 1013410
15:00−12сз359060 0.0 1014503
18:00−16ссз3395100 0.1 101539
21:00−20сз239773 0.1 101720
10 марта, ср
ср1000:00−21сз2310066 0.0 101721
03:00−22сз239980 0.1 101826
06:00−24ссз349988 0.0 101948
09:00−22ссз469692 0.1 1020253
12:00−20сз469271 0.0 1021356
15:00−19сз579075 0.0 1021487
18:00−23сз479682 0.0 102288
21:00−25сз349882 0.0 102454